Wind_Speed
5 5 5 6 6 7 6 5 6 5 5 2 4 6 6 8 8 10 11 12 12 12 13 14 15 16 17 18 19 21 22 22 21 22 22 21 22 26
3 3 4 4 4 5 6 5 5 4 4 2 4 6 8 9 9 11 11 12 14 15 15 15 15 16 19 21 22 22 21 21 21 21 22 23 22 21
2 1 1 2 2 2 3 3 3 4 4 5 7 8 9 10 11 12 13 13 15 16 16 15 15 19 21 21 22 23 23 23 23 23 23 23 23 23
3 2 1 1 1 2 2 3 4 4 5 6 7 9 11 12 13 15 15 17 19 19 15 17 18 22 22 22 22 23 24 24 24 24 23 24 23 23
6 5 4 4 3 4 4 4 4 5 6 7 8 9 10 12 12 13 15 16 18 19 18 17 22 23 22 23 24 23 24 25 26 24 24 24 24 24
9 9 8 8 7 7 7 7 7 7 8 10 11 13 14 15 17 18 16 17 20 20 21 22 25 25 25 23 22 24 26 28 29 28 26 24 23 23
13 13 13 12 11 11 11 11 11 11 12 13 14 15 16 18 20 21 22 22 22 22 24 25 27 28 30 31 29 30 28 26 27 28 28 27 27 25
18 17 17 16 16 15 15 15 15 15 15 17 17 18 19 20 22 23 25 28 29 25 32 26 29 29 30 29 34 36 32 27 26 25 24 33 31 28
23 22 22 21 20 20 19 19 19 18 19 19 19 19 20 20 22 23 23 25 27 27 33 35 29 34 32 31 32 34 33 29 18 22 31 30 31 31
27 27 27 25 24 24 23 23 22 21 21 22 23 22 22 22 22 23 24 28 29 28 29 38 33 34 35 32 33 34 35 33 39 33 28 27 28 30
30 30 30 29 27 27 27 26 25 23 23 23 25 25 25 24 22 24 25 28 31 32 31 29 34 39 37 36 33 35 36 38 39 41 36 29 28 29
35 33 32 31 29 28 29 28 29 25 24 24 25 26 25 25 24 24 26 27 27 30 20 30 34 36 42 43 39 40 41 40 38 41 39 33 21 25
36 34 32 31 31 30 29 29 29 26 26 27 27 27 27 26 26 25 26 27 28 30 29 27 33 34 34 42 46 44 43 43 43 41 38 28 20 32
34 32 30 29 30 28 27 27 26 25 26 26 27 28 29 28 27 27 28 30 30 30 27 27 32 29 30 37 43 46 44 43 43 41 37 38 39 28
30 26 25 26 26 25 23 22 21 23 25 27 29 31 31 31 32 30 28 25 27 28 28 29 26 26 28 31 41 45 48 43 42 37 44 41 36 32
27 24 24 24 24 24 25 26 27 28 29 31 32 34 34 31 30 27 27 25 29 33 29 28 29 29 32 34 38 46 42 43 44 40 39 41 33 30
25 28 29 28 26 25 25 26 26 27 30 31 30 29 27 26 28 25 25 28 32 34 36 33 31 33 36 38 40 40 40 40 36 34 39 44 39 35
28 30 29 28 27 25 25 26 26 25 25 23 23 24 25 27 27 28 28 30 33 37 41 35 36 38 41 43 35 33 33 36 36 35 37 43 47 41
18 21 23 24 24 24 24 23 22 22 21 22 25 29 33 34 33 34 35 35 39 42 42 39 37 37 40 43 42 31 29 31 37 41 41 41 43 42
24 25 25 25 25 26 27 28 30 31 33 34 35 34 34 32 33 35 34 35 36 38 42 39 36 33 33 40 43 43 33 32 36 44 44 43 42 38
25 26 27 28 28 29 30 30 30 31 31 32 33 33 32 32 33 34 35 32 32 35 38 38 38 36 32 34 42 44 41 36 36 36 37 38 44 43
23 24 23 24 26 26 28 29 31 32 33 33 34 34 34 33 33 34 34 35 35 36 38 38 38 36 35 33 37 41 43 41 37 36 36 31 33 36
23 24 25 27 28 29 30 30 30 31 31 30 29 29 27 27 27 28 29 30 32 33 35 35 34 32 32 32 34 40 41 41 40 38 35 29 27 32
Wind_Direction
96 99 102 105 107 108 106 101 119 136 135 104 22 359 14 19 19 16 13 9 5 2 356 349 336 331 326 319 315 314 316 319 318 315 310 311 301 299
112 108 107 103 102 108 117 120 120 116 133 51 14 12 11 10 13 14 15 10 5 4 2 358 354 351 348 344 341 336 329 325 324 321 318 312 306 294
162 139 110 91 73 40 29 31 29 28 34 17 2 3 358 6 7 6 9 5 359 357 356 356 356 354 351 347 344 340 337 332 326 322 320 321 314 299
231 229 231 244 288 312 331 338 332 331 332 335 341 343 343 346 349 349 353 355 352 356 1 357 352 350 352 347 342 338 335 333 332 326 322 318 318 315
249 254 262 268 275 283 290 298 304 308 312 316 319 325 330 327 329 336 337 339 342 344 346 343 344 344 345 344 340 339 337 335 333 329 323 319 317 314
256 257 258 260 263 268 276 281 285 291 299 306 312 319 322 322 324 320 316 325 329 330 329 330 331 332 338 344 338 334 334 331 329 328 326 321 315 312
260 260 261 264 267 271 276 279 282 286 291 296 302 307 311 313 317 322 321 319 323 322 318 324 324 327 330 336 334 331 332 331 327 326 327 325 318 311
263 265 267 267 267 269 271 272 274 279 285 290 297 303 308 312 314 318 320 321 324 326 315 317 320 318 322 326 325 326 331 333 324 320 334 328 322 319
262 264 265 268 269 270 271 272 274 278 282 285 289 294 298 303 308 310 313 315 316 320 316 311 316 313 314 317 317 317 319 324 325 316 316 319 318 316
262 264 265 267 270 271 271 271 274 277 280 282 287 290 292 297 300 303 308 308 308 311 311 309 312 304 307 312 315 315 315 315 317 317 320 316 313 312
261 262 262 262 263 266 269 269 270 272 274 277 281 283 284 288 293 297 301 303 306 308 312 312 312 308 302 300 303 306 310 312 313 315 317 324 315 310
254 255 258 260 260 261 265 269 270 270 269 270 271 274 279 284 287 291 296 298 302 307 299 307 307 316 313 300 301 300 303 307 310 313 319 327 317 311
257 256 256 257 259 258 259 262 266 269 268 269 271 273 277 280 285 289 290 292 295 293 301 302 305 307 304 304 299 301 305 305 308 311 317 321 304 318
257 257 254 250 249 251 255 260 266 269 270 272 275 279 282 286 289 288 288 290 291 292 297 303 300 299 297 299 298 302 302 307 309 312 315 315 314 312
256 258 253 247 246 248 249 253 258 264 270 275 281 285 288 292 293 291 292 290 289 289 294 298 296 294 295 300 298 297 305 304 307 311 310 309 312 315
244 253 252 249 247 248 247 249 253 259 267 273 277 283 289 290 288 290 290 291 292 293 296 298 298 297 296 297 301 296 300 301 305 308 307 305 309 309
235 238 241 246 248 248 253 259 263 266 269 275 278 281 283 286 289 291 291 293 291 293 298 299 299 299 299 299 299 297 302 299 303 309 304 299 302 306
229 236 242 247 251 253 257 263 266 267 271 275 277 280 284 286 288 289 289 290 286 287 295 294 294 296 298 298 299 303 298 301 302 299 300 300 301 304
237 246 252 255 258 261 263 266 269 273 276 274 276 278 279 280 279 277 281 282 280 285 287 289 291 293 298 299 304 306 298 296 300 299 304 305 304 305
232 243 251 259 264 266 268 269 271 271 271 274 276 277 278 276 275 275 278 280 282 284 288 290 289 288 289 297 299 299 294 295 298 303 304 306 303 304
248 252 256 261 264 268 271 272 274 275 276 276 277 277 279 279 279 280 281 279 279 278 279 281 284 289 290 289 287 285 287 289 294 298 304 302 303 308
264 264 264 267 268 270 272 274 276 277 279 278 277 280 281 282 283 283 281 279 277 277 280 284 287 289 290 287 286 289 294 297 297 298 297 292 293 291
266 268 270 271 272 273 275 277 279 280 279 280 282 281 283 285 285 284 283 282 281 281 281 284 288 289 288 287 286 288 291 295 303 305 300 305 298 294
Height
1568 1569 1569 1570 1570 1570 1570 1570 1570 1570 1572 1573 1573 1572 1571 1569 1567 1566 1564 1562 1561 1560 1558 1557 1555 1553 1551 1549 1547 1543 1541 1539 1538 1536 1533 1531 1529 1526
1568 1568 1568 1569 1569 1570 1570 1570 1570 1570 1571 1571 1571 1570 1569 1567 1566 1565 1564 1562 1560 1559 1557 1554 1552 1549 1547 1545 1542 1540 1538 1536 1533 1531 1529 1527 1524 1522
1568 1568 1568 1569 1568 1568 1569 1568 1569 1569 1569 1570 1569 1568 1568 1567 1566 1564 1563 1561 1559 1557 1555 1553 1550 1548 1545 1542 1540 1537 1534 1532 1529 1526 1524 1522 1519 1517
1567 1568 1568 1568 1568 1568 1567 1567 1568 1568 1568 1568 1568 1567 1565 1564 1562 1561 1559 1558 1556 1555 1553 1551 1549 1546 1543 1540 1537 1534 1531 1527 1524 1521 1518 1516 1513 1512
1566 1567 1567 1567 1567 1567 1566 1566 1566 1566 1566 1566 1565 1564 1563 1561 1560 1558 1557 1556 1554 1552 1551 1550 1547 1544 1542 1539 1535 1531 1528 1525 1522 1518 1515 1512 1510 1507
1564 1565 1565 1565 1565 1564 1564 1564 1564 1563 1563 1562 1562 1561 1559 1558 1557 1555 1554 1552 1550 1548 1547 1545 1543 1541 1539 1536 1532 1529 1526 1522 1518 1515 1512 1509 1506 1503
1561 1561 1561 1562 1562 1562 1562 1561 1561 1561 1560 1560 1559 1558 1556 1555 1553 1551 1550 1549 1547 1545 1543 1542 1539 1535 1532 1530 1527 1525 1523 1520 1516 1513 1509 1506 1503 1499
1556 1557 1557 1558 1558 1558 1558 1558 1558 1557 1557 1556 1556 1555 1555 1553 1551 1549 1547 1544 1542 1541 1534 1537 1534 1532 1529 1528 1523 1519 1517 1515 1512 1509 1505 1502 1499 1496
1550 1551 1552 1552 1553 1553 1553 1554 1554 1553 1553 1552 1552 1551 1549 1548 1546 1545 1544 1542 1539 1538 1531 1526 1531 1525 1525 1524 1519 1516 1513 1509 1507 1505 1501 1496 1493 1489
1543 1544 1544 1546 1547 1547 1547 1547 1548 1548 1548 1547 1546 1546 1544 1544 1543 1540 1539 1536 1535 1534 1531 1522 1523 1519 1517 1516 1514 1512 1509 1506 1502 1500 1497 1492 1488 1483
1535 1536 1537 1538 1539 1539 1539 1540 1541 1542 1542 1541 1540 1539 1539 1538 1538 1535 1534 1531 1527 1526 1526 1522 1516 1511 1512 1509 1507 1504 1501 1498 1496 1492 1490 1487 1482 1477
1524 1524 1526 1528 1530 1531 1531 1532 1531 1534 1534 1533 1533 1533 1533 1533 1533 1532 1528 1526 1525 1520 1520 1519 1514 1510 1501 1498 1498 1495 1492 1490 1487 1485 1483 1481 1477 1471
1514 1516 1518 1520 1520 1521 1522 1522 1524 1526 1526 1525 1524 1524 1525 1525 1525 1525 1524 1522 1520 1517 1517 1514 1510 1508 1504 1492 1486 1488 1485 1481 1479 1477 1477 1474 1473 1470
1503 1506 1509 1511 1512 1513 1513 1514 1515 1518 1517 1517 1516 1515 1516 1517 1517 1515 1514 1514 1513 1512 1512 1510 1506 1503 1497 1490 1480 1477 1478 1476 1472 1469 1468 1465 1462 1463
1495 1497 1499 1502 1504 1505 1506 1507 1508 1508 1508 1509 1508 1508 1508 1508 1507 1507 1505 1504 1505 1504 1502 1503 1501 1498 1494 1489 1481 1471 1467 1466 1464 1464 1462 1457 1451 1450
1488 1489 1492 1495 1497 1499 1500 1501 1502 1502 1501 1500 1500 1500 1500 1499 1498 1499 1499 1496 1494 1494 1495 1494 1493 1493 1489 1484 1477 1467 1467 1462 1455 1453 1453 1450 1444 1444
1481 1481 1483 1485 1488 1489 1491 1494 1495 1496 1495 1493 1492 1492 1491 1492 1492 1491 1489 1488 1487 1485 1485 1485 1485 1484 1482 1476 1467 1464 1459 1455 1448 1445 1449 1441 1436 1435
1473 1473 1476 1478 1480 1481 1482 1483 1484 1486 1487 1487 1485 1484 1485 1485 1484 1484 1482 1480 1478 1476 1475 1477 1475 1474 1469 1464 1465 1455 1452 1448 1442 1442 1443 1433 1423 1426
1471 1471 1472 1472 1473 1475 1475 1475 1475 1477 1478 1478 1478 1478 1478 1478 1477 1476 1474 1473 1470 1467 1464 1468 1467 1466 1460 1450 1449 1451 1445 1440 1438 1435 1432 1427 1418 1414
1464 1466 1467 1468 1469 1468 1469 1468 1468 1469 1468 1469 1469 1467 1467 1467 1466 1465 1463 1463 1461 1458 1457 1458 1458 1458 1453 1446 1438 1436 1439 1436 1433 1426 1420 1416 1412 1409
1458 1458 1460 1460 1459 1460 1461 1461 1459 1459 1458 1457 1458 1459 1457 1457 1455 1455 1453 1453 1454 1452 1449 1448 1447 1448 1443 1439 1432 1427 1429 1431 1428 1422 1416 1411 1404 1396
1450 1452 1451 1450 1452 1451 1451 1452 1450 1449 1448 1449 1449 1447 1447 1445 1443 1443 1442 1442 1443 1441 1439 1438 1437 1435 1433 1430 1425 1421 1419 1418 1416 1414 1412 1410 1405 1394
1444 1443 1442 1442 1442 1440 1441 1440 1439 1438 1439 1440 1439 1438 1436 1435 1436 1435 1434 1433 1432 1431 1430 1427 1426 1425 1422 1422 1421 1415 1413 1409 1405 1400 1397 1398 1396 1392